Regional Weather Roundup
Issued by NWS

Home | Current Version | Previous Version | Text Only | Print | Product List | Glossary Off
Versions: 1 2 3 4 5 6 7 8 9 10 11 12 13 14 15 16 17 18 19 20 21 22 23 24 25 26 27 28 29 30 31 32 33 34 35 36 37 38 39 40 41 42 43 44 45 46 47 48 49 50

000
ASUS44 KMEG 062300
RWRTN
TENNESSEE HOURLY STATE WEATHER ROUNDUP
NATIONAL WEATHER SERVICE MEMPHIS TN
600 PM CDT MON JUL 06 2015

TNZ002-004-019-021-049-052-054-088>092-070000-
WEST TENNESSEE

CITY           SKY/WX    TMP DP  RH WIND       PRES   REMARKS
MEMPHIS INTL   PTSUNNY   85  73  67 S13       30.03F HX  91
NWS MEMPHIS      N/A     87 N/A N/A MISG        N/A
JACKSON        MOSUNNY   86  73  65 SW8       30.03F HX  93
DYERSBURG        N/A    N/A N/A N/A MISG        N/A
PARIS          SUNNY     82  73  74 SW6       30.02F
LEXINGTON      PTSUNNY   82  73  74 S9        30.03F
$$

TNZ008-025-027-028-033-062-065-066-070000-
NORTH MIDDLE TENNESSEE

CITY           SKY/WX    TMP DP  RH WIND       PRES   REMARKS
NASHVILLE      PTSUNNY   85  71  63 S9        30.06F HX  90
CLARKSVILLE    MOSUNNY   85  71  63 S9        30.02F HX  90
COOKEVILLE     SUNNY     84  73  70 W5        30.08F HX  91
CROSSVILLE     SUNNY     79  65  62 SW5       30.14F
$$

TNZ061-075-076-078-094-096-097-070000-
SOUTH MIDDLE TENNESSEE

CITY           SKY/WX    TMP DP  RH WIND       PRES   REMARKS
FAYETTEVILLE     N/A     84  68  58 SW5       30.10S
TULLAHOMA      SUNNY     82  70  65 SW7       30.11F
WINCHESTER     MOSUNNY   82  70  65 W6        30.11S
SHELBYVILLE    SUNNY     84  73  70 S5          N/A  HX  91
$$

TNZ017-018-042-046-047-070000-
NORTHEAST TENNESSEE

CITY           SKY/WX    TMP DP  RH WIND       PRES   REMARKS
TRI CITIES     MOSUNNY   80  63  55 W6        30.12S
ELIZABETHTON   CLEAR     79  64  61 NW3       30.12F
$$

TNZ012-013-036-069-073-074-070000-
CENTRAL EAST TENNESSEE

CITY           SKY/WX    TMP DP  RH WIND       PRES   REMARKS
KNOXVILLE      MOSUNNY   83  67  58 SW10      30.08F
OAK RIDGE      SUNNY     83  68  60 VRB3      30.09F
GATLINBURG     CLEAR     84  64  51 W5        30.08F
$$

TNZ083-085-099-070000-
SOUTHEAST TENNESSEE

CITY           SKY/WX    TMP DP  RH WIND       PRES   REMARKS
CHATTANOOGA    MOSUNNY   85  67  54 W7        30.09S
$$

SKY/WX REPORTED AS FAIR MEANS FEW OR NO CLOUDS BELOW
12 THOUSAND FEET.




USA.gov is the U.S. government's official web portal to all federal, state and local government web resources and services.